Regional Weather Roundup
Issued by NWS Bismarck, ND

Home | Current Version | Previous Version | Text Only | Print | Product List | Glossary On
Versions: 1 2 3 4 5 6 7 8 9 10 11 12 13 14 15 16 17 18 19 20 21 22 23 24 25 26 27 28 29 30 31 32 33 34 35 36 37 38 39 40 41 42 43 44 45 46 47 48 49 50
000
ASUS43 KBIS 290720
RWRBIS

NWR BROADCAST TEXT
NATIONAL WEATHER SERVICE BISMARCK ND
200 AM CDT FRI AUG 29 2014

NOTE: "FAIR" INDICATES FEW OR NO CLOUDS BELOW 12,000 FEET WITH NO
SIGNIFICANT WEATHER AND/OR OBSTRUCTIONS TO VISIBILITY.


CITY           SKY/WX    TMP DP  RH WIND       PRES   REMARKS
WILLISTON      CLEAR     63  54  72 N9        29.79R
MINOT          PTCLDY    70  63  78 SW12      29.72F
MINOT AFB      CLEAR     68  67  95 SW10      29.71F
BISMARCK       MOCLDY    63  63 100 CALM      29.80F FOG
DICKINSON      CLEAR     62  55  77 NW6       29.80F
GARRISON         N/A     65  64  97 S6        29.77F
HETTINGER ARPT CLEAR     58  56  93 SE3       29.85F
JAMESTOWN      CLOUDY    65  64  97 S8        29.81F FOG
BEACH            N/A     57  57 100 SE8       29.83F
CARRINGTON     CLOUDY    64  64 100 S9        29.80F
CROSBY         FAIR      64  57  77 N21G36    29.84R
HARVEY         FAIR      63  63 100 S8        29.77F
HAZEN          FAIR      63  61  94 NW3       29.79S
LINTON         CLOUDY    64  64 100 S9        29.82S FOG
MANDAN         FOG       64  64 100 S8        29.81F VSB 1/4
OAKES            N/A     64  64 100 N3        29.80F
RUGBY          FAIR      63  63 100 S7        29.75F
STANLEY        FAIR      59  59 100 W5        29.76F
TIOGA          FAIR      61  61 100 CALM      29.81S
WATFORD CITY   FAIR      57  52  82 SW3       29.76S
$$

CITY           SKY/WX    TMP DP  RH WIND       PRES   REMARKS
GRAND FORKS    CLOUDY    67  64  90 S9        29.79F
GRAND FORKS AF CLOUDY    67  67  99 S10       29.80F
DEVILS LAKE    CLOUDY    66  63  88 S10       29.77F
FARGO          CLOUDY    67  64  90 SE7       29.81F
CANDO          CLOUDY    64  64 100 S10G16    29.79R
CAVALIER       CLOUDY    66  64  94 S9        29.77F
GRAFTON        CLOUDY    66  66 100 S9        29.79S
GWINNER        CLOUDY    66  66 100 CALM      29.82F
LANGDON        CLOUDY    66  64  94 S12       29.78F FOG
ROLLA          FAIR      64  64 100 S12       29.77F
WALHALLA         N/A     66  66 100 S5        29.77S
$$

CITY           SKY/WX    TMP DP  RH WIND       PRES   REMARKS
ABERDEEN       MOCLDY    64  64 100 NE6       29.81F
MOBRIDGE       CLOUDY    65  65 100 SE6       29.81F
BUFFALO          N/A     65  53  65 SW6       29.80F
RAPID CITY     CLEAR     56  55  97 CALM      29.91F
GLASGOW        CLOUDY    61  59  93 N17G24    29.91R
SIDNEY         PTCLDY    63  54  72 NW17      29.84R
WOLF POINT     MOCLDY    65  56  72 N24G37    29.87R
GLENDIVE       PTCLDY    59  54  82 NW7       29.83S
MILES CITY     MOCLDY    63  53  70 W10       29.85R
BAKER          CLEAR     57  53  86 SE3       29.85F
$$

CITY           SKY/WX    TMP DP  RH WIND       PRES   REMARKS
BILLINGS       CLOUDY    67  54  63 W16       29.97R
GREAT FALLS    CLOUDY    53  49  86 W3        30.13S
REGINA         CLOUDY    59  55  88 NW10G18   29.90R
ESTEVAN        MOCLDY    63  57  82 NW7       29.79R
$$



USA.gov is the U.S. government's official web portal to all federal, state and local government web resources and services.